LKF71 KUGN-KHFY

Flight info

Callsign LKF71
Flight time 0h 34m
Altitude 31000
Route MONKZ5 EMMLY JAKKS ZIPPY
Aircraft C750/M-SBDE3FGHRWXY/S

Departure

Time 2026-04-18 21:48
Airport Waukegan National Airport (KUGN)

Arrival

Time 2026-04-18 22:22
Airport Indy South Greenwood Airport (KHFY)
Time Latitude Longitude Altitude Speed Heading
2026-04-18 21:38 42.41866 -87.86814 723 ft 0 kts 68°
2026-04-18 21:44 42.41870 -87.86801 723 ft 5 kts 57°
2026-04-18 21:44 42.41902 -87.86813 724 ft 5 kts 320°
2026-04-18 21:44 42.41907 -87.86818 724 ft 0 kts 319°
2026-04-18 21:45 42.41907 -87.86819 724 ft 0 kts 319°
2026-04-18 21:45 42.41909 -87.86822 724 ft 3 kts 318°
2026-04-18 21:45 42.41951 -87.86820 724 ft 13 kts 37°
2026-04-18 21:45 42.42057 -87.86659 722 ft 31 kts 49°
2026-04-18 21:46 42.42229 -87.86399 724 ft 40 kts 49°
2026-04-18 21:46 42.42410 -87.86123 727 ft 38 kts 47°
2026-04-18 21:46 42.42560 -87.85896 728 ft 23 kts 49°
2026-04-18 21:46 42.42612 -87.85841 729 ft 0 kts 359°
2026-04-18 21:47 42.42650 -87.85889 730 ft 9 kts 295°
2026-04-18 21:47 42.42622 -87.85991 730 ft 32 kts 228°
2026-04-18 21:47 42.42224 -87.86608 727 ft 130 kts 228°
2026-04-18 21:48 42.41624 -87.87508 1328 ft 130 kts 231°
2026-04-18 21:48 42.40979 -87.88552 1633 ft 161 kts 240°
2026-04-18 21:48 42.40487 -87.90010 2172 ft 172 kts 249°
2026-04-18 21:48 42.40120 -87.91539 2994 ft 172 kts 253°
2026-04-18 21:49 42.39634 -87.93118 2995 ft 189 kts 250°
2026-04-18 21:49 42.39038 -87.94721 2835 ft 201 kts 247°
2026-04-18 21:49 42.38246 -87.96508 2940 ft 234 kts 236°
2026-04-18 21:49 42.36833 -87.97706 3556 ft 261 kts 202°
2026-04-18 21:50 42.34992 -87.97828 4654 ft 266 kts 181°
2026-04-18 21:50 42.33150 -87.97468 5727 ft 269 kts 176°
2026-04-18 21:50 42.31291 -87.97039 6743 ft 272 kts 176°
2026-04-18 21:50 42.30053 -87.96745 7426 ft 275 kts 175°
2026-04-18 21:51 42.28187 -87.95974 8435 ft 284 kts 165°
2026-04-18 21:51 42.26343 -87.94982 9535 ft 287 kts 163°
2026-04-18 21:51 42.24468 -87.93995 10393 ft 294 kts 166°
2026-04-18 21:51 42.22468 -87.93021 10717 ft 318 kts 168°
2026-04-18 21:52 42.20319 -87.91981 10833 ft 346 kts 167°
2026-04-18 21:52 42.17979 -87.90805 10913 ft 369 kts 166°
2026-04-18 21:52 42.15579 -87.89569 11706 ft 369 kts 166°
2026-04-18 21:52 42.13180 -87.88362 12527 ft 368 kts 168°
2026-04-18 21:53 42.10785 -87.87187 13369 ft 366 kts 169°
2026-04-18 21:53 42.08382 -87.86004 14053 ft 368 kts 169°
2026-04-18 21:53 42.06010 -87.84817 14720 ft 370 kts 169°
2026-04-18 21:53 42.03588 -87.83603 15388 ft 371 kts 170°
2026-04-18 21:54 42.01164 -87.82410 16010 ft 372 kts 171°
2026-04-18 21:54 41.98685 -87.81536 16665 ft 364 kts 179°
2026-04-18 21:54 41.96198 -87.81077 17338 ft 358 kts 185°
2026-04-18 21:54 41.93715 -87.80816 18013 ft 360 kts 185°
2026-04-18 21:55 41.91207 -87.80410 18685 ft 368 kts 181°
2026-04-18 21:55 41.88678 -87.79614 19271 ft 380 kts 175°
2026-04-18 21:55 41.86141 -87.78404 19885 ft 393 kts 169°
2026-04-18 21:55 41.83636 -87.76768 20481 ft 406 kts 164°
2026-04-18 21:56 41.81142 -87.74951 21066 ft 410 kts 164°
2026-04-18 21:56 41.78641 -87.73170 21600 ft 415 kts 165°
2026-04-18 21:56 41.76041 -87.71340 22189 ft 419 kts 165°
2026-04-18 21:56 41.73491 -87.69522 22704 ft 424 kts 165°
2026-04-18 21:57 41.70878 -87.67647 23261 ft 428 kts 164°
2026-04-18 21:57 41.68239 -87.65768 23811 ft 431 kts 165°
2026-04-18 21:57 41.65522 -87.64136 24248 ft 425 kts 171°
2026-04-18 21:57 41.62725 -87.62918 24824 ft 418 kts 176°
2026-04-18 21:58 41.59904 -87.62076 25398 ft 414 kts 180°
2026-04-18 21:58 41.57069 -87.61300 25915 ft 418 kts 180°
2026-04-18 21:58 41.54220 -87.60488 26438 ft 421 kts 180°
2026-04-18 21:58 41.51342 -87.59672 26948 ft 423 kts 180°
2026-04-18 21:59 41.48466 -87.58874 27632 ft 417 kts 180°
2026-04-18 21:59 41.45718 -87.58086 28851 ft 395 kts 181°
2026-04-18 21:59 41.43027 -87.57347 29214 ft 395 kts 182°
2026-04-18 21:59 41.40331 -87.56829 29655 ft 390 kts 185°
2026-04-18 22:00 41.37669 -87.56398 30148 ft 392 kts 185°
2026-04-18 22:00 41.34953 -87.55915 30623 ft 395 kts 185°
2026-04-18 22:00 41.32230 -87.55420 31053 ft 398 kts 185°
2026-04-18 22:01 41.26587 -87.54860 31051 ft 412 kts 192°
2026-04-18 22:01 41.23657 -87.54616 30986 ft 444 kts 180°
2026-04-18 22:01 41.20660 -87.53155 31049 ft 474 kts 168°
2026-04-18 22:01 41.17702 -87.51037 31062 ft 491 kts 162°
2026-04-18 22:02 41.14751 -87.48731 31055 ft 490 kts 164°
2026-04-18 22:02 41.08594 -87.45165 31062 ft 479 kts 173°
2026-04-18 22:03 41.02301 -87.42182 31065 ft 484 kts 171°
2026-04-18 22:03 40.96196 -87.38195 30981 ft 499 kts 164°
2026-04-18 22:03 40.93146 -87.36006 30477 ft 496 kts 165°
2026-04-18 22:04 40.90067 -87.34046 29963 ft 484 kts 168°
2026-04-18 22:04 40.87007 -87.32244 29459 ft 481 kts 168°
2026-04-18 22:04 40.83978 -87.30340 28953 ft 485 kts 166°
2026-04-18 22:04 40.80964 -87.28316 28390 ft 485 kts 165°
2026-04-18 22:05 40.77957 -87.26345 27766 ft 480 kts 166°
2026-04-18 22:05 40.74950 -87.24478 27147 ft 476 kts 167°
2026-04-18 22:05 40.72002 -87.22643 26531 ft 474 kts 166°
2026-04-18 22:05 40.69038 -87.20731 25901 ft 473 kts 165°
2026-04-18 22:06 40.66103 -87.18828 25286 ft 470 kts 165°
2026-04-18 22:06 40.63162 -87.16967 24660 ft 467 kts 166°
2026-04-18 22:06 40.60226 -87.15129 23925 ft 466 kts 165°
2026-04-18 22:06 40.57318 -87.13281 23154 ft 463 kts 165°
2026-04-18 22:07 40.54433 -87.11432 22285 ft 457 kts 165°
2026-04-18 22:07 40.51596 -87.09628 21409 ft 448 kts 165°
2026-04-18 22:07 40.48806 -87.07876 20538 ft 442 kts 165°
2026-04-18 22:07 40.46054 -87.06144 19665 ft 436 kts 164°
2026-04-18 22:08 40.43338 -87.04420 18791 ft 430 kts 164°
2026-04-18 22:08 40.40665 -87.02729 17920 ft 423 kts 164°
2026-04-18 22:08 40.38058 -87.01092 17059 ft 419 kts 163°
2026-04-18 22:08 40.35442 -86.99451 16180 ft 415 kts 163°
2026-04-18 22:09 40.32863 -86.97825 15338 ft 409 kts 163°
2026-04-18 22:09 40.30317 -86.96217 14934 ft 404 kts 163°
2026-04-18 22:09 40.27775 -86.94627 14569 ft 405 kts 163°
2026-04-18 22:09 40.25237 -86.93039 14199 ft 404 kts 162°
2026-04-18 22:10 40.22708 -86.91447 13885 ft 402 kts 162°
2026-04-18 22:10 40.20179 -86.89860 13637 ft 402 kts 162°
2026-04-18 22:10 40.17730 -86.88067 13355 ft 409 kts 155°
2026-04-18 22:10 40.15451 -86.85840 13291 ft 410 kts 150°
2026-04-18 22:11 40.13186 -86.83592 13290 ft 403 kts 149°
2026-04-18 22:11 40.11192 -86.81059 13290 ft 411 kts 140°
2026-04-18 22:11 40.09460 -86.78097 13140 ft 403 kts 131°
2026-04-18 22:11 40.08131 -86.74966 12651 ft 389 kts 123°
2026-04-18 22:12 40.06373 -86.68388 11586 ft 377 kts 115°
2026-04-18 22:12 40.05597 -86.65195 10960 ft 361 kts 114°
2026-04-18 22:12 40.04892 -86.62181 10310 ft 336 kts 113°
2026-04-18 22:13 40.04242 -86.59358 9778 ft 316 kts 113°
2026-04-18 22:13 40.03602 -86.56673 9266 ft 313 kts 113°
2026-04-18 22:13 40.02950 -86.53971 8846 ft 310 kts 112°
2026-04-18 22:13 40.02316 -86.51279 8479 ft 312 kts 111°
2026-04-18 22:14 40.01682 -86.48575 8106 ft 311 kts 111°
2026-04-18 22:14 40.01046 -86.45884 7735 ft 310 kts 111°
2026-04-18 22:14 40.00412 -86.43210 7363 ft 309 kts 111°
2026-04-18 22:14 39.99774 -86.40530 6951 ft 309 kts 110°
2026-04-18 22:15 39.99138 -86.37859 6449 ft 307 kts 109°
2026-04-18 22:15 39.98510 -86.35216 5951 ft 304 kts 109°
2026-04-18 22:15 39.97884 -86.32590 5556 ft 300 kts 108°
2026-04-18 22:15 39.97079 -86.30142 5206 ft 292 kts 127°
2026-04-18 22:16 39.95652 -86.28374 4881 ft 284 kts 147°
2026-04-18 22:16 39.94048 -86.26853 4657 ft 286 kts 148°
2026-04-18 22:16 39.92448 -86.25338 4439 ft 284 kts 148°
2026-04-18 22:16 39.90859 -86.23797 4205 ft 283 kts 147°
2026-04-18 22:17 39.89283 -86.22269 3966 ft 281 kts 146°
2026-04-18 22:17 39.87707 -86.20752 3720 ft 282 kts 146°
2026-04-18 22:17 39.86132 -86.19241 3472 ft 280 kts 146°
2026-04-18 22:17 39.84575 -86.17743 3258 ft 275 kts 146°
2026-04-18 22:18 39.83241 -86.15971 3190 ft 280 kts 122°
2026-04-18 22:18 39.82668 -86.13577 3233 ft 278 kts 98°
2026-04-18 22:18 39.82423 -86.11101 3273 ft 281 kts 95°
2026-04-18 22:18 39.81852 -86.08687 3187 ft 281 kts 121°
2026-04-18 22:19 39.80490 -86.06930 3200 ft 277 kts 149°
2026-04-18 22:19 39.78696 -86.06154 3201 ft 271 kts 178°
2026-04-18 22:19 39.76843 -86.06317 3211 ft 265 kts 192°
2026-04-18 22:19 39.75010 -86.06668 3084 ft 267 kts 193°
2026-04-18 22:20 39.73175 -86.07005 2791 ft 267 kts 191°
2026-04-18 22:20 39.71344 -86.07313 2422 ft 261 kts 191°
2026-04-18 22:20 39.69563 -86.07614 2062 ft 256 kts 189°
2026-04-18 22:20 39.67858 -86.07913 1722 ft 236 kts 189°
2026-04-18 22:21 39.66413 -86.08165 1382 ft 190 kts 189°
2026-04-18 22:21 39.65229 -86.08367 1183 ft 156 kts 191°
2026-04-18 22:21 39.64234 -86.08529 948 ft 134 kts 192°
2026-04-18 22:21 39.63386 -86.08688 824 ft 114 kts 192°
2026-04-18 22:22 39.62739 -86.08809 830 ft 67 kts 187°
2026-04-18 22:22 39.62424 -86.08860 825 ft 35 kts 187°
2026-04-18 22:22 39.62190 -86.08904 823 ft 28 kts 187°
2026-04-18 22:22 39.62106 -86.08962 822 ft 11 kts 271°
2026-04-18 22:23 39.62173 -86.08993 822 ft 20 kts
2026-04-18 22:23 39.62396 -86.08954 825 ft 39 kts
2026-04-18 22:23 39.62657 -86.08908 829 ft 36 kts
2026-04-18 22:23 39.62896 -86.08867 832 ft 32 kts
2026-04-18 22:24 39.63016 -86.08917 828 ft 17 kts 311°
2026-04-18 22:24 39.63031 -86.08935 828 ft 0 kts 317°